Powrót do katalogu

STARLINK-35780

AktywnyŁącznośćVLEO
NORAD 66974·PAYLOAD·🇺🇸 United States

Wystrzelony Dec 8, 2025 z Cape Canaveral Space Force Station

Loading…

Następne Przeloty (najbliższe 24 godziny)

TLE

ŚwieżeSource: CelesTrak SupGP

Epoka: Sep 15, 2026, 03:01 UTC

1 66974C 25288R   26258.12618056 -.00011184  00000+0 -40507-3 0  2582
2 66974  43.0020  33.2015 0001520 268.5136 106.6080 15.27585996    15

Śledź STARLINK-35780 w czasie rzeczywistym z AllMySat

Download on the App Store